Rifle, CO

2:19 AM MDT on April 25, 2017 (GMT -0600)
Garfield County Regional

Weather History for KRIL - July, 2013

Change the Weather History Date:

Saturday, July 20, 2013

  Actual Average Record
Temperature  
Mean Temperature 78 °F 73 °F  
Max Temperature 97 °F 91 °F 103 °F (1934)
Min Temperature 58 °F 56 °F 42 °F (1959)
Degree Days  
Heating Degree Days 0 0  
Month to date heating degree days 0 0  
Since 1 June heating degree days 13 59  
Since 1 July heating degree days 0 0  
Cooling Degree Days 13 8  
Month to date cooling degree days 232 148  
Year to date cooling degree days 390 250  
Since 1 June cooling degree days 383 243  
Growing Degree Days 26 (Base 50)    
Moisture  
Dew Point 41 °F    
Average Humidity 41    
Maximum Humidity 72    
Minimum Humidity 9    
Precipitation  
Precipitation 0.00 in 0.04 in 0.49 in (1974)
Month to date precipitation 0.54 0.55  
Year to date precipitation 4.53 6.99  
Sea Level Pressure  
Sea Level Pressure 29.81 in    
Wind  
Wind Speed 4 mph (NNE)    
Max Wind Speed 17 mph    
Max Gust Speed 21 mph    
Visibility 10 miles    
Events      
T = Trace of Precipitation, MM = Missing Value Source: NWS Daily Summary

Daily Weather History Graph

Daily Weather History Graph

Search for Another Location

Airport or City:

Trip Planner

Search our weather history database for the weather conditions in past years. The results will help you decide how hot, cold, wet, or windy it might be!

Date:

Astronomy

Jul. 20, 2013 Rise Set
Actual Time 6:00 AM MDT 8:33 PM MDT
Civil Twilight 5:29 AM MDT 9:04 PM MDT
Nautical Twilight 4:50 AM MDT 9:43 PM MDT
Astronomical Twilight 4:07 AM MDT 10:26 PM MDT
Moon 6:40 PM MDT (7/20) 3:43 AM MDT (7/20)
Length of Visible Light 15h 35m
Length of Day
14h 33m
Waxing Gibbous, 94% of the Moon is Illuminated
Jul 20
Waxing Gibbous
Jul 22
Full
Jul 29
Last Quarter
Aug 6
New
Aug 14
First Quarter

Hourly Weather History & Observations

Time (MDT) Temp. Dew Point Humidity Pressure Visibility Wind Dir Wind Speed Gust Speed Precip Events Conditions
12:53 AM 71.1 °F 50.0 °F 47% 29.87 in 10.0 mi ESE 11.5 mph - N/A   Clear
1:53 AM 68.0 °F 48.9 °F 50% 29.88 in 10.0 mi Calm Calm - N/A   Clear
2:53 AM 66.0 °F 48.9 °F 54% 29.87 in 10.0 mi Calm Calm - N/A   Clear
3:53 AM 62.1 °F 48.9 °F 62% 29.88 in 10.0 mi ESE 3.5 mph - N/A   Clear
4:53 AM 61.0 °F 48.9 °F 64% 29.89 in 10.0 mi Calm Calm - N/A   Clear
5:53 AM 57.9 °F 48.9 °F 72% 29.92 in 10.0 mi SSE 3.5 mph - N/A   Clear
6:53 AM 61.0 °F 51.1 °F 70% 29.92 in 10.0 mi Calm Calm - N/A   Clear
7:53 AM 66.0 °F 48.9 °F 54% 29.91 in 10.0 mi East 5.8 mph - N/A   Clear
8:53 AM 69.1 °F 51.1 °F 53% 29.92 in 10.0 mi Calm Calm - N/A   Clear
9:53 AM 75.0 °F 50.0 °F 41% 29.90 in 10.0 mi Calm Calm - N/A   Clear
10:53 AM 81.0 °F 48.9 °F 33% 29.86 in 10.0 mi Variable 3.5 mph - N/A   Clear
11:53 AM 84.0 °F 48.9 °F 29% 29.83 in 10.0 mi WNW 5.8 mph - N/A   Clear
12:53 PM 90.0 °F 39.0 °F 17% 29.80 in 10.0 mi WNW 3.5 mph - N/A   Clear
1:53 PM 93.9 °F 35.1 °F 13% 29.77 in 10.0 mi Variable 5.8 mph - N/A   Clear
2:53 PM 96.1 °F 28.9 °F 9% 29.75 in 10.0 mi WNW 9.2 mph - N/A   Clear
3:53 PM 93.9 °F 30.0 °F 10% 29.74 in 10.0 mi NNW 11.5 mph - N/A   Clear
4:53 PM 96.1 °F 30.0 °F 10% 29.70 in 10.0 mi NNE 6.9 mph - N/A   Clear
5:53 PM 93.9 °F 27.0 °F 9% 29.70 in 10.0 mi Variable 3.5 mph - N/A   Clear
6:53 PM 93.9 °F 30.0 °F 10% 29.69 in 10.0 mi NNW 5.8 mph - N/A   Clear
7:53 PM 91.9 °F 30.0 °F 11% 29.68 in 10.0 mi North 4.6 mph - N/A   Clear
8:53 PM 86.0 °F 34.0 °F 16% 29.70 in 10.0 mi Calm Calm - N/A   Clear
9:53 PM 80.1 °F 35.1 °F 20% 29.73 in 10.0 mi SE 11.5 mph - N/A   Clear
10:53 PM 75.0 °F 39.9 °F 28% 29.74 in 10.0 mi ENE 8.1 mph - N/A   Clear
11:53 PM 70.0 °F 41.0 °F 35% 29.76 in 10.0 mi Calm Calm - N/A   Clear